COSMOS 2251 DEB, 34797

Orbit data source: Space-Track

COSMOS 2251 DEB, 34797 is space debris in LEO originally from a launch on Wed, 16 Jun 1993 UTC launched from the Plesetsk Missile And Space Complex (PKMTR). The debris from Iridium 33, an American commercial communications satellite, has been tracked extensively since its accidental collision with the defunct Russian satellite Cosmos 2251 in 2009. This event, occurring at high speed in low Earth orbit (LEO), generated thousands of pieces of space debris, significantly increasing the risk of further collisions. The Iridium 33 debris cloud has impacted space traffic management and orbital debris mitigation strategies, making it a subject of ongoing study in space situational awareness.

Loading next visibility...
Identifier
34797, 1993-036ABA
Orbit
LEO
Country
Flag of CISCIS
Related business
Manufacturer
Unknown
Mission
Spacecraft
Bus & Motor
Unknown
Mass
Unknown
Launch date (UTC)
1993-06-16 (33 years ago)
Launch vehicle
Unknown
Launch site
Plesetsk Missile And Space Complex (PKMTR)
Object type
Payload
Rocket body
Debris
Shape & HBR
Unknown shape, 0.1 m
Radar Cross Section
Small (<0.1 m²)

Expand to show TLE details & history
Last TLE update: 7 hours ago

TLE from 7 hours ago
0 COSMOS 2251 DEB
1 34797U 93036ABA 26236.58317054  .00001429  00000-0  40326-3 0  9997
2 34797  73.9766 344.1003 0071465  35.9904 324.6034 14.45187569910943
Epoch: 2026-08-24T13:59Z
TLE epoch observation values (Epoch: 2026-08-24T13:59:45.934Z)
Latitude
-0.00007°
Longitude
161.2961°
Altitude
702.67 km
Speed
7.527 km/s
True Right ascension
22h 56m 24s
True Declination
0° 00' 00"
Sunlit
Object was in full shadow at epoch
Visualization orbit readout
Latitude
Unknown
Longitude
Unknown
Altitude
Unknown
Speed
Unknown
Apparent Right ascension
Unknown
Apparent Declination
Unknown
Sunlit
N/A
Visualization observer readout
Local Sidereal Time
12:10:36
Azimuth
Unknown
Elevation
Unknown
Doppler factor
Unknown
Orbital elements
Apogee altitude
789.892 km
Perigee altitude
688.166 km
Semi-major axis
7,117.166 km
Eccentricity
0.00715
Inclination
73.9766°
RAAN
344.1003°
Arg. of periapsis
35.9904°
True anomaly
324.12558°
Mean anomaly
324.6034°
Eccentric anomaly
324.36484°
Mean motion
3.61479 °/min
Orbital period
99.59 mins
BSTAR
0.00040326
Loading maneuver chart data...
Computing Atmospheric mass density...

Documentation

Showing up to 5 results
|